Data supplied by UK-AIR on 28/3/2018
All Data GMT hour ending 
Status: R =Ratified P=Provisional,P*=As supplied
,,Sheffield Tinsley,,,,,,,,,,,,,,,,,,,,,,,
Date,time,"Nitric oxide",status,unit,"Nitrogen dioxide",status,unit,"Nitrogen oxides as nitrogen dioxide",status,unit
 
01-01-2017,01:00,0.29811,R,ugm-3,2.57231,R,ugm-3,3.02940,R,ugm-3
01-01-2017,02:00,0.34051,R,ugm-3,7.77559,R,ugm-3,8.29770,R,ugm-3
01-01-2017,03:00,0.54289,R,ugm-3,3.76093,R,ugm-3,4.59335,R,ugm-3
01-01-2017,04:00,0.38323,R,ugm-3,5.83313,R,ugm-3,6.42074,R,ugm-3
01-01-2017,05:00,0.31931,R,ugm-3,6.81998,R,ugm-3,7.30958,R,ugm-3
01-01-2017,06:00,0.31900,R,ugm-3,6.52402,R,ugm-3,7.01314,R,ugm-3
01-01-2017,07:00,0.35112,R,ugm-3,3.70929,R,ugm-3,4.24766,R,ugm-3
01-01-2017,08:00,0.51108,R,ugm-3,0.69806,R,ugm-3,1.48171,R,ugm-3
01-01-2017,09:00,0.47928,R,ugm-3,0.84533,R,ugm-3,1.58020,R,ugm-3
01-01-2017,10:00,0.73435,R,ugm-3,2.33134,R,ugm-3,3.45732,R,ugm-3
01-01-2017,11:00,0.95793,R,ugm-3,3.76667,R,ugm-3,5.23547,R,ugm-3
01-01-2017,12:00,1.02216,R,ugm-3,6.48338,R,ugm-3,8.05067,R,ugm-3
01-01-2017,13:00,0.76615,R,ugm-3,8.20941,R,ugm-3,9.38416,R,ugm-3
01-01-2017,14:00,1.21331,R,ugm-3,8.06693,R,ugm-3,9.92731,R,ugm-3
01-01-2017,15:00,1.85224,R,ugm-3,13.80395,R,ugm-3,16.64401,R,ugm-3
01-01-2017,16:00,2.07551,R,ugm-3,17.31434,R,ugm-3,20.49674,R,ugm-3
01-01-2017,17:00,2.04370,R,ugm-3,20.91940,R,ugm-3,24.05303,R,ugm-3
01-01-2017,18:00,1.88374,R,ugm-3,21.85605,R,ugm-3,24.74440,R,ugm-3
01-01-2017,19:00,1.91585,R,ugm-3,23.38748,R,ugm-3,26.32508,R,ugm-3
01-01-2017,20:00,1.75589,R,ugm-3,18.54503,R,ugm-3,21.23736,R,ugm-3
01-01-2017,21:00,1.21362,R,ugm-3,16.90746,R,ugm-3,18.76832,R,ugm-3
01-01-2017,22:00,0.95793,R,ugm-3,16.75637,R,ugm-3,18.22517,R,ugm-3
01-01-2017,23:00,0.79796,R,ugm-3,14.18645,R,ugm-3,15.40997,R,ugm-3
01-01-2017,24:00,0.79827,R,ugm-3,13.54337,R,ugm-3,14.76737,R,ugm-3
02-01-2017,01:00,0.63945,R,ugm-3,8.96389,R,ugm-3,9.94436,R,ugm-3
02-01-2017,02:00,0.25570,R,ugm-3,8.89376,R,ugm-3,9.28582,R,ugm-3
02-01-2017,03:00,0.38386,R,ugm-3,6.17785,R,ugm-3,6.76643,R,ugm-3
02-01-2017,04:00,0.35205,R,ugm-3,5.38656,R,ugm-3,5.92636,R,ugm-3
02-01-2017,05:00,0.57532,R,ugm-3,10.37818,R,ugm-3,11.26032,R,ugm-3
02-01-2017,06:00,0.63924,R,ugm-3,7.51469,R,ugm-3,8.49485,R,ugm-3
02-01-2017,07:00,1.15063,R,ugm-3,8.75543,R,ugm-3,10.51971,R,ugm-3
02-01-2017,08:00,7.25554,R,ugm-3,34.31408,R,ugm-3,45.43909,R,ugm-3
02-01-2017,09:00,5.11393,R,ugm-3,34.04154,R,ugm-3,41.88279,R,ugm-3
02-01-2017,10:00,10.83498,R,ugm-3,40.08696,R,ugm-3,56.70037,R,ugm-3
02-01-2017,11:00,7.41520,R,ugm-3,28.48764,R,ugm-3,39.85746,R,ugm-3
02-01-2017,12:00,8.62976,R,ugm-3,25.48980,R,ugm-3,38.72191,R,ugm-3
02-01-2017,13:00,6.93624,R,ugm-3,21.22158,R,ugm-3,31.85699,R,ugm-3
02-01-2017,14:00,8.59795,R,ugm-3,24.35330,R,ugm-3,37.53664,R,ugm-3
02-01-2017,15:00,11.34638,R,ugm-3,35.20339,R,ugm-3,52.60092,R,ugm-3
02-01-2017,16:00,22.21348,R,ugm-3,53.41039,R,ugm-3,87.47058,R,ugm-3
02-01-2017,17:00,24.73864,R,ugm-3,65.04652,R,ugm-3,102.97856,R,ugm-3
02-01-2017,18:00,33.52836,R,ugm-3,69.84354,R,ugm-3,121.25298,R,ugm-3
02-01-2017,19:00,76.86860,R,ugm-3,87.05700,R,ugm-3,204.92055,R,ugm-3
02-01-2017,20:00,27.48737,R,ugm-3,67.69676,R,ugm-3,109.84348,R,ugm-3
02-01-2017,21:00,11.25065,R,ugm-3,50.51295,R,ugm-3,67.76370,R,ugm-3
02-01-2017,22:00,5.43324,R,ugm-3,40.51583,R,ugm-3,48.84668,R,ugm-3
02-01-2017,23:00,7.79874,R,ugm-3,43.21103,R,ugm-3,55.16893,R,ugm-3
02-01-2017,24:00,3.57975,R,ugm-3,38.02385,R,ugm-3,43.51272,R,ugm-3
03-01-2017,01:00,1.10802,R,ugm-3,13.71071,R,ugm-3,15.40965,R,ugm-3
03-01-2017,02:00,1.44936,R,ugm-3,20.95845,R,ugm-3,23.18078,R,ugm-3
03-01-2017,03:00,1.50237,R,ugm-3,20.66313,R,ugm-3,22.96673,R,ugm-3
03-01-2017,04:00,2.10950,R,ugm-3,23.09057,R,ugm-3,26.32508,R,ugm-3
03-01-2017,05:00,1.85349,R,ugm-3,10.64115,R,ugm-3,13.48313,R,ugm-3
03-01-2017,06:00,2.71631,R,ugm-3,16.03536,R,ugm-3,20.20030,R,ugm-3
03-01-2017,07:00,6.13734,R,ugm-3,21.55722,R,ugm-3,30.96768,R,ugm-3
03-01-2017,08:00,12.97629,R,ugm-3,37.14888,R,ugm-3,57.04557,R,ugm-3
03-01-2017,09:00,9.81282,R,ugm-3,34.64063,R,ugm-3,49.68675,R,ugm-3
03-01-2017,10:00,9.87581,R,ugm-3,32.07454,R,ugm-3,47.21723,R,ugm-3
03-01-2017,11:00,11.82565,R,ugm-3,34.32077,R,ugm-3,52.45318,R,ugm-3
03-01-2017,12:00,8.62976,R,ugm-3,24.65021,R,ugm-3,37.88232,R,ugm-3
03-01-2017,13:00,7.09558,R,ugm-3,22.16301,R,ugm-3,33.04274,R,ugm-3
03-01-2017,14:00,8.56583,R,ugm-3,27.16802,R,ugm-3,40.30211,R,ugm-3
03-01-2017,15:00,5.97706,R,ugm-3,25.60646,R,ugm-3,34.77116,R,ugm-3
03-01-2017,16:00,10.22786,R,ugm-3,32.81898,R,ugm-3,48.50148,R,ugm-3
03-01-2017,17:00,9.87612,R,ugm-3,29.75276,R,ugm-3,44.89594,R,ugm-3
03-01-2017,18:00,8.05382,R,ugm-3,25.63180,R,ugm-3,37.98082,R,ugm-3
03-01-2017,19:00,4.25111,R,ugm-3,18.37482,R,ugm-3,24.89310,R,ugm-3
03-01-2017,20:00,3.29256,R,ugm-3,16.58472,R,ugm-3,21.63324,R,ugm-3
03-01-2017,21:00,2.65270,R,ugm-3,14.35523,R,ugm-3,18.42263,R,ugm-3
03-01-2017,22:00,1.72626,R,ugm-3,8.26774,R,ugm-3,10.91464,R,ugm-3
03-01-2017,23:00,1.66140,R,ugm-3,7.42958,R,ugm-3,9.97703,R,ugm-3
03-01-2017,24:00,1.24637,R,ugm-3,5.39851,R,ugm-3,7.30958,R,ugm-3
04-01-2017,01:00,0.98038,R,ugm-3,5.08215,R,ugm-3,6.58537,R,ugm-3
04-01-2017,02:00,1.19325,R,ugm-3,10.08971,R,ugm-3,11.91934,R,ugm-3
04-01-2017,03:00,1.05490,R,ugm-3,7.12406,R,ugm-3,8.74156,R,ugm-3
04-01-2017,04:00,1.21425,R,ugm-3,8.31316,R,ugm-3,10.17498,R,ugm-3
04-01-2017,05:00,2.78023,R,ugm-3,15.19625,R,ugm-3,19.45921,R,ugm-3
04-01-2017,06:00,4.69827,R,ugm-3,21.73891,R,ugm-3,28.94282,R,ugm-3
04-01-2017,07:00,11.21884,R,ugm-3,45.62317,R,ugm-3,62.82515,R,ugm-3
04-01-2017,08:00,22.91664,R,ugm-3,53.02263,R,ugm-3,88.16099,R,ugm-3
04-01-2017,09:00,2.49304,R,ugm-3,18.05735,R,ugm-3,21.87996,R,ugm-3
04-01-2017,10:00,2.04557,R,ugm-3,16.86682,R,ugm-3,20.00332,R,ugm-3
04-01-2017,11:00,2.39731,R,ugm-3,15.28996,R,ugm-3,18.96578,R,ugm-3
04-01-2017,12:00,2.74843,R,ugm-3,11.49221,R,ugm-3,15.70641,R,ugm-3
04-01-2017,13:00,4.02753,R,ugm-3,15.30908,R,ugm-3,21.48455,R,ugm-3
04-01-2017,14:00,4.47500,R,ugm-3,15.26510,R,ugm-3,22.12667,R,ugm-3
04-01-2017,15:00,3.61187,R,ugm-3,19.40423,R,ugm-3,24.94235,R,ugm-3
04-01-2017,16:00,3.80364,R,ugm-3,24.09893,R,ugm-3,29.93110,R,ugm-3
04-01-2017,17:00,4.41077,R,ugm-3,40.65162,R,ugm-3,47.41470,R,ugm-3
04-01-2017,18:00,3.93149,R,ugm-3,36.79363,R,ugm-3,42.82183,R,ugm-3
04-01-2017,19:00,6.52026,R,ugm-3,49.91290,R,ugm-3,59.91050,R,ugm-3
04-01-2017,20:00,3.96330,R,ugm-3,47.61025,R,ugm-3,53.68722,R,ugm-3
04-01-2017,21:00,6.42453,R,ugm-3,49.36832,R,ugm-3,59.21913,R,ugm-3
04-01-2017,22:00,2.20554,R,ugm-3,26.54837,R,ugm-3,29.93015,R,ugm-3
04-01-2017,23:00,2.33308,R,ugm-3,29.95836,R,ugm-3,33.53569,R,ugm-3
04-01-2017,24:00,5.01789,R,ugm-3,43.07954,R,ugm-3,50.77353,R,ugm-3
05-01-2017,01:00,3.75022,R,ugm-3,39.86479,R,ugm-3,45.61504,R,ugm-3
05-01-2017,02:00,9.75929,R,ugm-3,49.63511,R,ugm-3,64.59915,R,ugm-3
05-01-2017,03:00,13.32802,R,ugm-3,53.42425,R,ugm-3,73.86027,R,ugm-3
05-01-2017,04:00,15.37360,R,ugm-3,52.26576,R,ugm-3,75.83828,R,ugm-3
05-01-2017,05:00,36.81998,R,ugm-3,63.13402,R,ugm-3,119.59054,R,ugm-3
05-01-2017,06:00,34.48691,R,ugm-3,62.60808,R,ugm-3,115.48727,R,ugm-3
05-01-2017,07:00,50.94722,R,ugm-3,72.61906,R,ugm-3,150.73703,R,ugm-3
05-01-2017,08:00,129.51059,R,ugm-3,94.63719,R,ugm-3,293.21733,R,ugm-3
05-01-2017,09:00,232.42781,R,ugm-3,114.56305,R,ugm-3,470.94739,R,ugm-3
05-01-2017,10:00,233.32306,R,ugm-3,111.21283,R,ugm-3,468.96986,R,ugm-3
05-01-2017,11:00,131.20442,R,ugm-3,90.50811,R,ugm-3,291.68542,R,ugm-3
05-01-2017,12:00,53.05671,R,ugm-3,72.84521,R,ugm-3,154.19770,R,ugm-3
05-01-2017,13:00,23.62012,R,ugm-3,58.25905,R,ugm-3,94.47607,R,ugm-3
05-01-2017,14:00,27.77488,R,ugm-3,64.94037,R,ugm-3,107.52792,R,ugm-3
05-01-2017,15:00,23.55620,R,ugm-3,65.92148,R,ugm-3,102.04048,R,ugm-3
05-01-2017,16:00,57.05244,R,ugm-3,81.05510,R,ugm-3,168.53428,R,ugm-3
05-01-2017,17:00,139.67421,R,ugm-3,105.40409,R,ugm-3,319.56823,R,ugm-3
05-01-2017,18:00,163.58184,R,ugm-3,110.22455,R,ugm-3,361.04653,R,ugm-3
05-01-2017,19:00,218.93982,R,ugm-3,118.23744,R,ugm-3,453.94048,R,ugm-3
05-01-2017,20:00,176.55812,R,ugm-3,97.64460,R,ugm-3,368.36328,R,ugm-3
05-01-2017,21:00,153.83325,R,ugm-3,85.47297,R,ugm-3,321.34733,R,ugm-3
05-01-2017,22:00,137.98038,R,ugm-3,80.95852,R,ugm-3,292.52548,R,ugm-3
05-01-2017,23:00,118.89856,R,ugm-3,75.85740,R,ugm-3,258.16598,R,ugm-3
05-01-2017,24:00,125.00347,R,ugm-3,73.02260,R,ugm-3,264.69191,R,ugm-3
06-01-2017,01:00,81.22626,R,ugm-3,67.73629,R,ugm-3,192.28147,R,ugm-3
06-01-2017,02:00,73.08638,R,ugm-3,64.66099,R,ugm-3,176.72520,R,ugm-3
06-01-2017,03:00,60.15229,R,ugm-3,59.88898,R,ugm-3,152.12121,R,ugm-3
06-01-2017,04:00,35.44577,R,ugm-3,55.20527,R,ugm-3,109.55469,R,ugm-3
06-01-2017,05:00,59.09801,R,ugm-3,56.56219,R,ugm-3,147.17787,R,ugm-3
06-01-2017,06:00,23.42804,R,ugm-3,51.63272,R,ugm-3,87.55521,R,ugm-3
06-01-2017,07:00,53.15275,R,ugm-3,62.56313,R,ugm-3,144.06289,R,ugm-3
06-01-2017,08:00,68.81448,R,ugm-3,70.13950,R,ugm-3,175.65356,R,ugm-3
06-01-2017,09:00,30.17219,R,ugm-3,56.02382,R,ugm-3,102.28719,R,ugm-3
06-01-2017,10:00,37.04419,R,ugm-3,57.54999,R,ugm-3,114.35029,R,ugm-3
06-01-2017,11:00,38.96160,R,ugm-3,57.03218,R,ugm-3,116.77247,R,ugm-3
06-01-2017,12:00,22.56490,R,ugm-3,45.68867,R,ugm-3,80.28771,R,ugm-3
06-01-2017,13:00,17.67518,R,ugm-3,44.78214,R,ugm-3,71.88370,R,ugm-3
06-01-2017,14:00,22.69306,R,ugm-3,49.54618,R,ugm-3,84.34173,R,ugm-3
06-01-2017,15:00,19.11331,R,ugm-3,46.77879,R,ugm-3,76.08547,R,ugm-3
06-01-2017,16:00,16.84416,R,ugm-3,47.83593,R,ugm-3,73.66328,R,ugm-3
06-01-2017,17:00,15.24606,R,ugm-3,44.65018,R,ugm-3,68.02715,R,ugm-3
06-01-2017,18:00,16.71600,R,ugm-3,40.36905,R,ugm-3,65.99990,R,ugm-3
06-01-2017,19:00,9.87643,R,ugm-3,33.75084,R,ugm-3,48.89450,R,ugm-3
06-01-2017,20:00,8.50191,R,ugm-3,33.73220,R,ugm-3,46.76828,R,ugm-3
06-01-2017,21:00,16.20461,R,ugm-3,42.83426,R,ugm-3,67.68098,R,ugm-3
06-01-2017,22:00,13.26472,R,ugm-3,42.00280,R,ugm-3,62.34176,R,ugm-3
06-01-2017,23:00,14.22327,R,ugm-3,41.07668,R,ugm-3,62.88539,R,ugm-3
06-01-2017,24:00,34.90257,R,ugm-3,41.70111,R,ugm-3,95.21764,R,ugm-3
07-01-2017,01:00,51.43741,R,ugm-3,43.73696,R,ugm-3,122.60655,R,ugm-3
07-01-2017,02:00,18.87913,R,ugm-3,39.54094,R,ugm-3,68.48854,R,ugm-3
07-01-2017,03:00,33.24055,R,ugm-3,38.95954,R,ugm-3,89.92766,R,ugm-3
07-01-2017,04:00,17.38736,R,ugm-3,38.69705,R,ugm-3,65.35730,R,ugm-3
07-01-2017,05:00,14.06300,R,ugm-3,38.05971,R,ugm-3,59.62267,R,ugm-3
07-01-2017,06:00,7.99020,R,ugm-3,30.06785,R,ugm-3,42.31932,R,ugm-3
07-01-2017,07:00,15.50144,R,ugm-3,39.26506,R,ugm-3,63.03361,R,ugm-3
07-01-2017,08:00,12.72090,R,ugm-3,51.24066,R,ugm-3,70.74577,R,ugm-3
07-01-2017,09:00,36.40495,R,ugm-3,63.02978,R,ugm-3,118.84992,R,ugm-3
07-01-2017,10:00,43.14910,R,ugm-3,64.00946,R,ugm-3,130.17049,R,ugm-3
07-01-2017,11:00,54.39943,R,ugm-3,75.77947,R,ugm-3,159.19076,R,ugm-3
07-01-2017,12:00,18.02629,R,ugm-3,52.40011,R,ugm-3,80.04004,R,ugm-3
07-01-2017,13:00,8.91726,R,ugm-3,40.11564,R,ugm-3,53.78858,R,ugm-3
07-01-2017,14:00,6.90381,R,ugm-3,40.73147,R,ugm-3,51.31716,R,ugm-3
07-01-2017,15:00,5.78529,R,ugm-3,46.30210,R,ugm-3,55.17276,R,ugm-3
07-01-2017,16:00,22.08594,R,ugm-3,64.07258,R,ugm-3,97.93721,R,ugm-3
07-01-2017,17:00,35.92567,R,ugm-3,67.71923,R,ugm-3,122.80449,R,ugm-3
07-01-2017,18:00,51.10749,R,ugm-3,74.20213,R,ugm-3,152.56586,R,ugm-3
07-01-2017,19:00,26.65605,R,ugm-3,61.81057,R,ugm-3,102.68260,R,ugm-3
07-01-2017,20:00,22.08563,R,ugm-3,59.77136,R,ugm-3,93.63552,R,ugm-3
07-01-2017,21:00,18.21838,R,ugm-3,59.71973,R,ugm-3,87.65418,R,ugm-3
07-01-2017,22:00,53.28123,R,ugm-3,70.62145,R,ugm-3,152.31819,R,ugm-3
07-01-2017,23:00,55.90149,R,ugm-3,72.88346,R,ugm-3,158.59789,R,ugm-3
07-01-2017,24:00,28.03057,R,ugm-3,68.60233,R,ugm-3,111.58194,R,ugm-3
08-01-2017,01:00,2.89789,R,ugm-3,44.59950,R,ugm-3,49.04287,R,ugm-3
08-01-2017,02:00,0.93755,R,ugm-3,11.35005,R,ugm-3,12.78761,R,ugm-3
08-01-2017,03:00,0.60681,R,ugm-3,13.01122,R,ugm-3,13.94165,R,ugm-3
08-01-2017,04:00,0.54351,R,ugm-3,12.95958,R,ugm-3,13.79295,R,ugm-3
08-01-2017,05:00,0.70285,R,ugm-3,17.95598,R,ugm-3,19.03368,R,ugm-3
08-01-2017,06:00,2.39731,R,ugm-3,32.80989,R,ugm-3,36.48572,R,ugm-3
08-01-2017,07:00,8.11836,R,ugm-3,50.78405,R,ugm-3,63.23203,R,ugm-3
08-01-2017,08:00,12.65698,R,ugm-3,60.53445,R,ugm-3,79.94154,R,ugm-3
08-01-2017,09:00,11.37818,R,ugm-3,53.89329,R,ugm-3,71.33960,R,ugm-3
08-01-2017,10:00,18.69796,R,ugm-3,49.88756,R,ugm-3,78.55737,R,ugm-3
08-01-2017,11:00,18.44195,R,ugm-3,46.67074,R,ugm-3,74.94801,R,ugm-3
08-01-2017,12:00,45.57790,R,ugm-3,56.62721,R,ugm-3,126.51235,R,ugm-3
08-01-2017,13:00,28.41443,R,ugm-3,54.76396,R,ugm-3,98.33214,R,ugm-3
08-01-2017,14:00,10.13151,R,ugm-3,41.17087,R,ugm-3,56.70563,R,ugm-3
08-01-2017,15:00,12.72090,R,ugm-3,45.60452,R,ugm-3,65.10963,R,ugm-3
08-01-2017,16:00,22.05414,R,ugm-3,54.67838,R,ugm-3,88.49424,R,ugm-3
08-01-2017,17:00,39.18549,R,ugm-3,74.68504,R,ugm-3,134.76862,R,ugm-3
08-01-2017,18:00,30.07646,R,ugm-3,67.93726,R,ugm-3,114.05385,R,ugm-3
08-01-2017,19:00,37.52346,R,ugm-3,65.07138,R,ugm-3,122.60655,R,ugm-3
08-01-2017,20:00,17.77060,R,ugm-3,54.42449,R,ugm-3,81.67236,R,ugm-3
08-01-2017,21:00,10.61141,R,ugm-3,46.81274,R,ugm-3,63.08333,R,ugm-3
08-01-2017,22:00,8.43767,R,ugm-3,39.86176,R,ugm-3,52.79934,R,ugm-3
08-01-2017,23:00,3.51583,R,ugm-3,32.42931,R,ugm-3,37.82017,R,ugm-3
08-01-2017,24:00,0.92674,R,ugm-3,19.44200,R,ugm-3,20.86298,R,ugm-3
09-01-2017,01:00,0.85191,R,ugm-3,13.19561,R,ugm-3,14.50185,R,ugm-3
09-01-2017,02:00,0.38375,R,ugm-3,9.82643,R,ugm-3,10.41484,R,ugm-3
09-01-2017,03:00,0.92674,R,ugm-3,6.78555,R,ugm-3,8.20654,R,ugm-3
09-01-2017,04:00,1.37421,R,ugm-3,6.09944,R,ugm-3,8.20654,R,ugm-3
09-01-2017,05:00,2.14161,R,ugm-3,12.63541,R,ugm-3,15.91917,R,ugm-3
09-01-2017,06:00,10.00428,R,ugm-3,25.34732,R,ugm-3,40.68700,R,ugm-3
09-01-2017,07:00,16.17280,R,ugm-3,33.53903,R,ugm-3,58.33699,R,ugm-3
09-01-2017,08:00,12.78451,R,ugm-3,32.30786,R,ugm-3,51.91051,R,ugm-3
09-01-2017,09:00,11.25033,R,ugm-3,34.01668,R,ugm-3,51.26695,R,ugm-3
09-01-2017,10:00,13.67945,R,ugm-3,32.61578,R,ugm-3,53.59064,R,ugm-3
09-01-2017,11:00,12.17801,R,ugm-3,31.60598,R,ugm-3,50.27867,R,ugm-3
09-01-2017,12:00,8.72580,R,ugm-3,25.23209,R,ugm-3,38.61146,R,ugm-3
09-01-2017,13:00,9.49258,R,ugm-3,29.59307,R,ugm-3,44.14815,R,ugm-3
09-01-2017,14:00,16.71632,R,ugm-3,43.28513,R,ugm-3,68.91646,R,ugm-3
09-01-2017,15:00,24.83437,R,ugm-3,54.76587,R,ugm-3,92.84470,R,ugm-3
09-01-2017,16:00,21.44670,R,ugm-3,54.27484,R,ugm-3,87.15932,R,ugm-3
09-01-2017,17:00,27.32741,R,ugm-3,57.02453,R,ugm-3,98.92598,R,ugm-3
09-01-2017,18:00,18.53800,R,ugm-3,50.52777,R,ugm-3,78.95230,R,ugm-3
09-01-2017,19:00,27.10414,R,ugm-3,60.72857,R,ugm-3,102.28767,R,ugm-3
09-01-2017,20:00,10.70682,R,ugm-3,37.96504,R,ugm-3,54.38194,R,ugm-3
09-01-2017,21:00,5.04969,R,ugm-3,23.70018,R,ugm-3,31.44293,R,ugm-3
09-01-2017,22:00,5.97675,R,ugm-3,27.61746,R,ugm-3,36.78168,R,ugm-3
09-01-2017,23:00,3.83545,R,ugm-3,18.93710,R,ugm-3,24.81803,R,ugm-3
09-01-2017,24:00,1.72626,R,ugm-3,11.34399,R,ugm-3,13.99089,R,ugm-3
10-01-2017,01:00,1.66348,R,ugm-3,10.83049,R,ugm-3,13.38113,R,ugm-3
10-01-2017,02:00,2.09048,R,ugm-3,10.57166,R,ugm-3,13.77701,R,ugm-3
10-01-2017,03:00,1.95171,R,ugm-3,7.48792,R,ugm-3,10.48050,R,ugm-3
10-01-2017,04:00,1.11976,R,ugm-3,6.39062,R,ugm-3,8.10757,R,ugm-3
10-01-2017,05:00,2.23953,R,ugm-3,9.17283,R,ugm-3,12.60672,R,ugm-3
10-01-2017,06:00,5.02319,R,ugm-3,16.77023,R,ugm-3,24.47235,R,ugm-3
10-01-2017,07:00,8.63818,R,ugm-3,23.24022,R,ugm-3,36.48524,R,ugm-3
10-01-2017,08:00,11.74177,R,ugm-3,30.19790,R,ugm-3,48.20169,R,ugm-3
10-01-2017,09:00,10.84559,R,ugm-3,32.70949,R,ugm-3,49.33915,R,ugm-3
10-01-2017,10:00,15.06863,R,ugm-3,37.25885,R,ugm-3,60.36376,R,ugm-3
10-01-2017,11:00,13.14904,R,ugm-3,32.58900,R,ugm-3,52.75058,R,ugm-3
10-01-2017,12:00,11.10159,R,ugm-3,28.85628,R,ugm-3,45.87848,R,ugm-3
10-01-2017,13:00,12.54129,R,ugm-3,31.39464,R,ugm-3,50.62435,R,ugm-3
10-01-2017,14:00,18.74785,R,ugm-3,43.03794,R,ugm-3,71.78425,R,ugm-3
10-01-2017,15:00,19.54769,R,ugm-3,44.62914,R,ugm-3,74.60184,R,ugm-3
10-01-2017,16:00,20.50748,R,ugm-3,52.20456,R,ugm-3,83.64893,R,ugm-3
10-01-2017,17:00,28.47430,R,ugm-3,63.52225,R,ugm-3,107.18224,R,ugm-3
10-01-2017,18:00,23.61108,R,ugm-3,55.15841,R,ugm-3,91.36156,R,ugm-3
10-01-2017,19:00,11.13340,R,ugm-3,38.54739,R,ugm-3,55.61837,R,ugm-3
10-01-2017,20:00,5.72667,R,ugm-3,28.94043,R,ugm-3,37.72119,R,ugm-3
10-01-2017,21:00,4.41544,R,ugm-3,28.57801,R,ugm-3,35.34826,R,ugm-3
10-01-2017,22:00,6.27049,R,ugm-3,26.57371,R,ugm-3,36.18833,R,ugm-3
10-01-2017,23:00,2.55977,R,ugm-3,14.11951,R,ugm-3,18.04444,R,ugm-3
10-01-2017,24:00,1.59997,R,ugm-3,11.04278,R,ugm-3,13.49603,R,ugm-3
11-01-2017,01:00,1.70589,R,ugm-3,14.78617,R,ugm-3,17.40184,R,ugm-3
11-01-2017,02:00,1.70631,R,ugm-3,10.96309,R,ugm-3,13.57939,R,ugm-3
11-01-2017,03:00,1.40758,R,ugm-3,6.19698,R,ugm-3,8.35523,R,ugm-3
11-01-2017,04:00,1.53543,R,ugm-3,6.09992,R,ugm-3,8.45421,R,ugm-3
11-01-2017,05:00,1.72751,R,ugm-3,3.87712,R,ugm-3,6.52593,R,ugm-3
11-01-2017,06:00,2.46342,R,ugm-3,7.54386,R,ugm-3,11.32104,R,ugm-3
11-01-2017,07:00,,,,,,,,,
11-01-2017,08:00,,,,,,,,,
11-01-2017,09:00,,,,,,,,,
11-01-2017,10:00,,,,,,,,,
11-01-2017,11:00,,,,,,,,,
11-01-2017,12:00,,,,,,,,,
11-01-2017,13:00,5.98299,R,ugm-3,15.54528,R,ugm-3,24.71906,R,ugm-3
11-01-2017,14:00,,,,,,,,,
11-01-2017,15:00,6.22777,R,ugm-3,16.15871,R,ugm-3,25.70783,R,ugm-3
11-01-2017,16:00,7.39056,R,ugm-3,20.06117,R,ugm-3,31.39321,R,ugm-3
11-01-2017,17:00,6.20657,R,ugm-3,20.19552,R,ugm-3,29.71212,R,ugm-3
11-01-2017,18:00,7.99831,R,ugm-3,25.50653,R,ugm-3,37.77044,R,ugm-3
11-01-2017,19:00,5.79059,R,ugm-3,22.11902,R,ugm-3,30.99780,R,ugm-3
11-01-2017,20:00,3.48714,R,ugm-3,17.09775,R,ugm-3,22.44462,R,ugm-3
11-01-2017,21:00,2.62338,R,ugm-3,13.97320,R,ugm-3,17.99567,R,ugm-3
11-01-2017,22:00,2.14380,R,ugm-3,11.69303,R,ugm-3,14.98013,R,ugm-3
11-01-2017,23:00,3.87131,R,ugm-3,13.88858,R,ugm-3,19.82450,R,ugm-3
11-01-2017,24:00,1.50362,R,ugm-3,5.65383,R,ugm-3,7.95935,R,ugm-3
12-01-2017,01:00,1.87469,R,ugm-3,5.36584,R,ugm-3,8.24033,R,ugm-3
12-01-2017,02:00,1.91793,R,ugm-3,5.82611,R,ugm-3,8.76690,R,ugm-3
12-01-2017,03:00,1.40633,R,ugm-3,5.60554,R,ugm-3,7.76188,R,ugm-3
12-01-2017,04:00,2.17373,R,ugm-3,7.19722,R,ugm-3,10.53023,R,ugm-3
12-01-2017,05:00,3.77152,R,ugm-3,15.47547,R,ugm-3,21.25839,R,ugm-3
12-01-2017,06:00,6.64811,R,ugm-3,25.35258,R,ugm-3,35.54620,R,ugm-3
12-01-2017,07:00,26.36886,R,ugm-3,56.31882,R,ugm-3,96.75051,R,ugm-3
12-01-2017,08:00,23.04449,R,ugm-3,51.47972,R,ugm-3,86.81411,R,ugm-3
12-01-2017,09:00,20.99954,R,ugm-3,57.08621,R,ugm-3,89.28506,R,ugm-3
12-01-2017,10:00,31.77060,R,ugm-3,60.39579,R,ugm-3,109.11004,R,ugm-3
12-01-2017,11:00,25.88927,R,ugm-3,53.49502,R,ugm-3,93.19134,R,ugm-3
12-01-2017,12:00,18.31473,R,ugm-3,45.72931,R,ugm-3,73.81150,R,ugm-3
12-01-2017,13:00,21.99021,R,ugm-3,52.00805,R,ugm-3,85.72590,R,ugm-3
12-01-2017,14:00,25.24972,R,ugm-3,53.43668,R,ugm-3,92.15238,R,ugm-3
12-01-2017,15:00,21.70177,R,ugm-3,55.16893,R,ugm-3,88.44452,R,ugm-3
12-01-2017,16:00,31.86633,R,ugm-3,64.50050,R,ugm-3,113.36153,R,ugm-3
12-01-2017,17:00,20.74385,R,ugm-3,54.71041,R,ugm-3,86.51720,R,ugm-3
12-01-2017,18:00,12.91236,R,ugm-3,53.22201,R,ugm-3,73.02068,R,ugm-3
12-01-2017,19:00,4.25080,R,ugm-3,31.30284,R,ugm-3,37.82064,R,ugm-3
12-01-2017,20:00,3.19589,R,ugm-3,21.30190,R,ugm-3,26.20221,R,ugm-3
12-01-2017,21:00,2.97263,R,ugm-3,20.85342,R,ugm-3,25.41139,R,ugm-3
12-01-2017,22:00,5.01789,R,ugm-3,26.17113,R,ugm-3,33.86512,R,ugm-3
12-01-2017,23:00,2.71631,R,ugm-3,16.45085,R,ugm-3,20.61579,R,ugm-3
12-01-2017,24:00,0.86313,R,ugm-3,6.93281,R,ugm-3,8.25626,R,ugm-3
13-01-2017,01:00,0.59579,R,ugm-3,4.62889,R,ugm-3,5.54243,R,ugm-3
13-01-2017,02:00,0.80908,R,ugm-3,7.99616,R,ugm-3,9.23674,R,ugm-3
13-01-2017,03:00,0.51108,R,ugm-3,5.20439,R,ugm-3,5.98804,R,ugm-3
13-01-2017,04:00,1.37297,R,ugm-3,6.10996,R,ugm-3,8.21514,R,ugm-3
13-01-2017,05:00,2.58628,R,ugm-3,6.37675,R,ugm-3,10.34232,R,ugm-3
13-01-2017,06:00,4.37428,R,ugm-3,11.20725,R,ugm-3,17.91439,R,ugm-3
13-01-2017,07:00,7.40772,R,ugm-3,17.09536,R,ugm-3,28.45370,R,ugm-3
13-01-2017,08:00,7.43983,R,ugm-3,19.32247,R,ugm-3,30.73005,R,ugm-3
13-01-2017,09:00,7.98272,R,ugm-3,20.81708,R,ugm-3,33.05708,R,ugm-3
13-01-2017,10:00,7.08872,R,ugm-3,19.71357,R,ugm-3,30.58279,R,ugm-3
13-01-2017,11:00,7.59949,R,ugm-3,20.11759,R,ugm-3,31.76997,R,ugm-3
13-01-2017,12:00,8.01484,R,ugm-3,21.60934,R,ugm-3,33.89858,R,ugm-3
13-01-2017,13:00,9.03638,R,ugm-3,26.47569,R,ugm-3,40.33128,R,ugm-3
13-01-2017,14:00,9.32388,R,ugm-3,28.90505,R,ugm-3,43.20146,R,ugm-3
13-01-2017,15:00,7.69522,R,ugm-3,27.74033,R,ugm-3,39.53950,R,ugm-3
13-01-2017,16:00,6.38649,R,ugm-3,31.67674,R,ugm-3,41.46922,R,ugm-3
13-01-2017,17:00,12.32488,R,ugm-3,49.98653,R,ugm-3,68.88443,R,ugm-3
13-01-2017,18:00,8.68557,R,ugm-3,44.33318,R,ugm-3,57.65088,R,ugm-3
13-01-2017,19:00,7.15264,R,ugm-3,44.20983,R,ugm-3,55.17706,R,ugm-3
13-01-2017,20:00,6.61007,R,ugm-3,40.88399,R,ugm-3,51.01928,R,ugm-3
13-01-2017,21:00,4.72602,R,ugm-3,29.76902,R,ugm-3,37.01548,R,ugm-3
13-01-2017,22:00,4.27886,R,ugm-3,27.93063,R,ugm-3,34.49146,R,ugm-3
13-01-2017,23:00,3.54420,R,ugm-3,21.78290,R,ugm-3,27.21727,R,ugm-3
13-01-2017,24:00,1.30935,R,ugm-3,12.29355,R,ugm-3,14.30120,R,ugm-3
14-01-2017,01:00,1.06228,R,ugm-3,9.20295,R,ugm-3,10.83176,R,ugm-3
14-01-2017,02:00,2.03975,R,ugm-3,15.23306,R,ugm-3,18.36064,R,ugm-3
14-01-2017,03:00,1.05179,R,ugm-3,7.74897,R,ugm-3,9.36169,R,ugm-3
14-01-2017,04:00,0.86033,R,ugm-3,5.61558,R,ugm-3,6.93473,R,ugm-3
14-01-2017,05:00,0.95606,R,ugm-3,6.60769,R,ugm-3,8.07362,R,ugm-3
14-01-2017,06:00,1.14752,R,ugm-3,5.52187,R,ugm-3,7.28137,R,ugm-3
14-01-2017,07:00,1.27474,R,ugm-3,10.87448,R,ugm-3,12.82905,R,ugm-3
14-01-2017,08:00,1.72065,R,ugm-3,18.16540,R,ugm-3,20.80370,R,ugm-3
14-01-2017,09:00,1.97572,R,ugm-3,23.22349,R,ugm-3,26.25289,R,ugm-3
14-01-2017,10:00,4.33406,R,ugm-3,31.84217,R,ugm-3,38.48763,R,ugm-3
14-01-2017,11:00,6.97927,R,ugm-3,29.32149,R,ugm-3,40.02289,R,ugm-3
14-01-2017,12:00,6.50093,R,ugm-3,23.02172,R,ugm-3,32.98967,R,ugm-3
14-01-2017,13:00,5.89568,R,ugm-3,19.73939,R,ugm-3,28.77930,R,ugm-3
14-01-2017,14:00,6.21436,R,ugm-3,21.87613,R,ugm-3,31.40468,R,ugm-3
14-01-2017,15:00,5.76845,R,ugm-3,24.34278,R,ugm-3,33.18761,R,ugm-3
14-01-2017,16:00,6.85204,R,ugm-3,31.94401,R,ugm-3,42.45033,R,ugm-3
14-01-2017,17:00,11.53628,R,ugm-3,49.23158,R,ugm-3,66.92029,R,ugm-3
14-01-2017,18:00,17.46376,R,ugm-3,59.31236,R,ugm-3,86.08975,R,ugm-3
14-01-2017,19:00,16.44440,R,ugm-3,63.40129,R,ugm-3,88.61569,R,ugm-3
14-01-2017,20:00,20.58700,R,ugm-3,62.10174,R,ugm-3,93.66803,R,ugm-3
14-01-2017,21:00,39.83564,R,ugm-3,71.17417,R,ugm-3,132.25463,R,ugm-3
14-01-2017,22:00,49.84242,R,ugm-3,69.00683,R,ugm-3,145.43080,R,ugm-3
14-01-2017,23:00,58.60595,R,ugm-3,71.12348,R,ugm-3,160.98469,R,ugm-3
14-01-2017,24:00,70.42973,R,ugm-3,70.87582,R,ugm-3,178.86656,R,ugm-3
15-01-2017,01:00,62.01908,R,ugm-3,65.06516,R,ugm-3,160.15976,R,ugm-3
15-01-2017,02:00,18.55026,R,ugm-3,57.48082,R,ugm-3,85.92416,R,ugm-3
15-01-2017,03:00,4.61626,R,ugm-3,43.00065,R,ugm-3,50.07881,R,ugm-3
15-01-2017,04:00,2.89717,R,ugm-3,36.32411,R,ugm-3,40.76637,R,ugm-3
15-01-2017,05:00,1.52794,R,ugm-3,30.99302,R,ugm-3,33.33583,R,ugm-3
15-01-2017,06:00,1.46464,R,ugm-3,25.98896,R,ugm-3,28.23472,R,ugm-3
15-01-2017,07:00,2.73782,R,ugm-3,32.55601,R,ugm-3,36.75395,R,ugm-3
15-01-2017,08:00,2.03747,R,ugm-3,17.23449,R,ugm-3,20.35856,R,ugm-3
15-01-2017,09:00,1.40072,R,ugm-3,9.04660,R,ugm-3,11.19434,R,ugm-3
15-01-2017,10:00,1.49645,R,ugm-3,9.84125,R,ugm-3,12.13577,R,ugm-3
15-01-2017,11:00,2.48337,R,ugm-3,12.58808,R,ugm-3,16.39586,R,ugm-3
15-01-2017,12:00,3.69294,R,ugm-3,19.40136,R,ugm-3,25.06379,R,ugm-3
15-01-2017,13:00,4.58445,R,ugm-3,21.79963,R,ugm-3,28.82903,R,ugm-3
15-01-2017,14:00,4.23458,R,ugm-3,23.07909,R,ugm-3,29.57203,R,ugm-3
15-01-2017,15:00,3.27915,R,ugm-3,21.62177,R,ugm-3,26.64973,R,ugm-3
15-01-2017,16:00,4.42573,R,ugm-3,29.91819,R,ugm-3,36.70422,R,ugm-3
15-01-2017,17:00,7.25897,R,ugm-3,45.48690,R,ugm-3,56.61717,R,ugm-3
15-01-2017,18:00,10.41090,R,ugm-3,55.41469,R,ugm-3,71.37785,R,ugm-3
15-01-2017,19:00,8.24590,R,ugm-3,47.53997,R,ugm-3,60.18351,R,ugm-3
15-01-2017,20:00,7.64065,R,ugm-3,48.22034,R,ugm-3,59.93584,R,ugm-3